Flag for Grenada Weather past 2 weeks in Saint George's, Grenada

Now
86 °F

Scattered clouds.


Feels Like: 95 °F
Forecast: 76 / 80 °F
Wind: 17 mph from East

Location: Point Salines Airport


UV Index: 10 (Very high)

Visibility: N/A


Pressure: 29.98 "Hg

Humidity: 70%

Dew point: 75 °F

Location of Saint George'sLocation

Historic Weather in Saint George's

°F

Saint George's temperature yesterday

Maximum temperature yesterday: 86 °F (at 11:00 AM)
Minimum temperature yesterday: 79 °F (at 1:00 AM)
Average temperature yesterday: 82 °F

Past Weeks' High & Low Weather Summary

 TemperatureHumidityPressure
High86 °F (Apr 7, 12:00 PM)94% (Apr 6, 5:00 AM)30.07 "Hg (Apr 6, 5:00 AM)
Low75 °F (Apr 17, 3:00 AM)59% (Apr 8, 12:00 PM)29.83 "Hg (Apr 14, 4:00 PM)
Average81 °F77%29.95 "Hg
* Reported Apr 5 12:00 Noon — Apr 20 12:00 Noon, Saint George's, Weather by CustomWeather, © 2014

Note: Actual official high and low records may vary slightly from our data, if they occured in-between our weather recording intervals... More about our weather records

Advertising

Historic Weather Conditions — Data for Previous 24 hours

 ConditionsComfort  
Time TempWeatherWind HumidityBarometerVisibility
12:00 PM
Apr 20
84 °FScattered clouds.25 mph74%30.01 "HgN/A
11:00 AM86 °FScattered clouds.24 mph70%30.01 "HgN/A
10:00 AM84 °FPartly sunny.18 mph74%30.01 "HgN/A
9:00 AM84 °FScattered clouds.18 mph70%30.01 "HgN/A
8:00 AM82 °FPassing clouds.17 mph79%30.01 "HgN/A
7:00 AM81 °FScattered clouds.20 mph84%29.98 "HgN/A
6:00 AM79 °FScattered clouds.16 mph84%29.98 "HgN/A
5:00 AM79 °FPassing clouds.16 mph84%29.98 "HgN/A
3:00 AM79 °FPassing clouds.18 mph84%29.95 "HgN/A
2:00 AM79 °FPassing clouds.17 mph84%29.95 "HgN/A
1:00 AM79 °FPassing clouds.16 mph84%29.95 "HgN/A
11:00 PM
Apr 19
81 °FPassing clouds.21 mph79%29.98 "HgN/A
10:00 PM81 °FPassing clouds.16 mph79%29.98 "HgN/A
8:00 PM81 °FPassing clouds.16 mph79%29.95 "HgN/A
7:00 PM79 °FPassing clouds.15 mph89%29.92 "HgN/A
6:00 PM81 °FSprinkles. Partly sunny.18 mph84%29.92 "HgN/A
4:00 PM84 °FScattered clouds.20 mph74%29.92 "HgN/A
2:00 PM86 °FPassing clouds.22 mph66%29.92 "HgN/A
1:00 PM86 °FScattered clouds.22 mph66%29.95 "HgN/A
Weather by CustomWeather, © 2014

See weather overview